Location: Cran-Gévrier
(45.9039°N, 6.1012°E)
Time: 10:19:08
(UTC+00:00)

Okean 1-7 Rocket - Pass Details

Date: 09 February 2023
Orbit: 614 x 648 km, 82.5° (Epoch: 31 March)

Event Time Altitude Azimuth Distance (km) Brightness Sun altitude
Rises 18:17:12 0° 186° (S) 2,893 7.1 -15.1°
Reaches altitude 10° 18:19:25 10° 185° (S) 1,997 6.3 -15.5°
Maximum altitude 18:23:51 85° 98° (E) 641 3.5 -16.3°
Drops below altitude 10° 18:28:22 10° 10° (N) 2,035 6.1 -17.1°
Sets 18:30:38 0° 10° (N) 2,954 6.9 -17.5°
